ARIANE 5 R/B (44036 NORAD) Tracking and Keplerian Element Data

This shows tracking and keplerian element data for the satellite.

Feedback or suggestion? Click here.




ElementValue
Catalog44036
NameARIANE 5 R/B
Epoch Orbit66
Epoch Day65.47387952
Epoch Year2019
RAAN264.4718
Inclination2.929
Eccentricity0.7277146
Argument of Perigee201.2802
Mean Anonmoly95.8649
Mean Motion2.28568098
Decay Rate7.536E-05
L11 44036U 19007C 19065.47387952 .00007536 00000-0 21331-2 0 9993
L22 44036 2.9290 264.4718 7277146 201.2802 95.8649 2.28568098 663

Live tracking and technical data element details for ARIANE 5 R/B (NORAD 44036). ARIANE 5 R/B can be tracked NOW for your location showing map with azimuth and elevation plus other details from your city location.

Track the satellite on the map from your city or location and see movement details for azimuth, elevation, latitude, longitude, range, height, and movement on the map or in text.







IsCatalogInMostPopularTable: catalog: 44036, numindb: 98
Update: records affected: 1



GetName: 44036 ARIANE 5 R/B

Hit Count: updated at: Mon, 22 Jul 2019 17:13:07 GMT